This is the latest recevied weather packets stored in our database for station/object DB0ASF-4. If no packets are shown the sender has not sent any weather packets the latest 10 day(s).
| Time | Temp. | Humidity | Pressure | Rain* | Wind** | Luminosity | Snow |
|---|---|---|---|---|---|---|---|
| 1777130354 | 21.11° C | 23% | 1021.9 hPa | 0 mm | - | - | - |
| 1777129754 | 21.67° C | 23% | 1021.7 hPa | 0 mm | - | - | - |
| 1777129154 | 22.78° C | 23% | 1021.7 hPa | 0 mm | - | - | - |
| 1777128554 | 23.89° C | 22% | 1021.9 hPa | 0 mm | - | - | - |
| 1777127954 | 26.11° C | 21% | 1021.9 hPa | 0 mm | - | - | - |
| 1777127354 | 27.78° C | 20% | 1022 hPa | 0 mm | - | - | - |
| 1777126754 | 29.44° C | 19% | 1022.2 hPa | 0 mm | - | - | - |
| 1777126154 | 31.11° C | 19% | 1022.2 hPa | 0 mm | - | - | - |
| 1777125554 | 30.56° C | 18% | 1022.2 hPa | 0 mm | - | - | - |
| 1777124954 | 31.67° C | 18% | 1022 hPa | 0 mm | - | - | - |
| 1777124354 | 31.11° C | 19% | 1022.2 hPa | 0 mm | - | - | - |
| 1777123754 | 30° C | 20% | 1022.4 hPa | 0 mm | - | - | - |
| 1777123154 | 28.33° C | 22% | 1022.5 hPa | 0 mm | - | - | - |
| 1777122554 | 26.67° C | 23% | 1022.5 hPa | 0 mm | - | - | - |
| 1777121954 | 25° C | 25% | 1022.7 hPa | 0 mm | - | - | - |
| 1777121354 | 24.44° C | 28% | 1022.9 hPa | 0 mm | - | - | - |
| 1777120754 | 23.89° C | 28% | 1022.7 hPa | 0 mm | - | - | - |
| 1777120154 | 23.89° C | 29% | 1022.9 hPa | 0 mm | - | - | - |
| 1777119554 | 23.33° C | 30% | 1022.9 hPa | 0 mm | - | - | - |
| 1777118954 | 22.78° C | 30% | 1023 hPa | 0 mm | - | - | - |
| 1777118354 | 22.78° C | 32% | 1023.2 hPa | 0 mm | - | - | - |
| 1777117754 | 22.22° C | 33% | 1023.4 hPa | 0 mm | - | - | - |
| 1777117154 | 21.11° C | 35% | 1023.4 hPa | 0 mm | - | - | - |
| 1777116554 | 20° C | 37% | 1023.7 hPa | 0 mm | - | - | - |
| 1777115954 | 18.89° C | 37% | 1023.7 hPa | 0 mm | - | - | - |
* Rain latest hour (hover to see other rain measurements)
** Current wind speed in m/s (hover to see current wind gust speed)